Weather in Shumikha

Russia / Altai Krai     53°37′06″N   85°59′43″E
temp.,
°C
wind,
m/s
gust,
m/s
humid.,
%
clouds,
%
prec.,
mm/h
press.,
hPa
HPBL,
m
13 may, thu
thu1301:00+10w116946 0.8 101411
04:00+8se117855 0.0 101411
07:00+9sse24819 0.0 1015132
10:00+15ssw335613 0.0 1014586
13:00+19sw224032 0.0 10131755
16:00+20wsw223291 0.0 10122529
19:00+19wnw124014 0.0 10112027
22:00+13wsw7136811 0.6 1013418
14 may, fri
fri1401:00+9wnw11875 0.7 101314
04:00+8sw229116 0.0 101414
07:00+9nw128499 0.0 1015135
10:00+14nnw456896 0.1 1016792
13:00+15nw465941 0.8 10171398
16:00+18nw6837100 0.6 10172459
19:00+15nnw5841100 0.6 1020647
22:00+9n2250100 0.0 102315
15 may, sat
sat1501:00+8nne1149100 0.0 102410
04:00+8wnw1149100 0.0 102511
07:00+9ssw2356100 0.1 102566
10:00+11sw4751100 0.0 1026425
13:00+17sw5635100 0.0 10241265
16:00+19wsw573597 0.0 10221500
19:00+18sw355085 0.0 1021193
22:00+13s36605 0.0 102086
16 may, sun
sun1601:00+10s347363 0.0 102059
04:00+10ssw33705 0.0 101938
07:00+12ssw4127198 0.0 1018314
10:00+19wsw694749 0.1 1017874
13:00+20w6854100 0.9 1016928
16:00+20wsw3758100 0.3 1015957
19:00+21wsw475968 0.3 1013498
22:00+12ene1295100 17.8 101552
17 may, mon
mon1701:00+11wnw11953 17.8 101511
04:00+10ene009610 0.0 101610
07:00+12ene119562 0.0 101771
10:00+16sw227995 0.0 1017565
13:00+20w345936 0.0 10161130
16:00+22w454929 0.0 10151288
19:00+22wsw36615 0.0 1013282
22:00+16ssw411745 0.2 1013165